Vertical_Velocity
-11 3 0 -7 1 1 1 -4 -5 0 3 7 2 4 2 7 9 1 3 5 0 -0 4 1 1 4 -5
14 1 -2 2 -2 -5 1 4 -6 -3 -4 -6 12 11 10 4 3 10 11 19 5 1 -1 0 -2 3 1
-17 2 -2 1 -3 2 -0 -1 -3 -1 5 -8 -8 10 7 11 12 16 -7 17 14 12 -3 -0 -1 2 3
-7 -20 -1 12 -6 -4 -10 6 -7 1 3 5 8 14 9 11 5 7 21 14 5 -0 7 3 -0 4 -4
-8 -16 -6 -6 -6 5 -10 1 -6 0 6 8 -10 8 9 5 8 -1 12 6 6 -0 7 2 5 -3 1
-3 -9 3 -10 -0 -1 2 1 -13 7 -3 6 -14 21 15 10 -2 -3 -9 -1 13 11 11 -0 0 0 -0
-14 2 -14 -9 -11 -11 -2 4 1 -0 9 14 19 13 7 10 7 6 3 4 6 3 -2 -1 1 -2 1
4 0 3 -5 -3 -6 0 1 -1 -0 3 9 9 5 4 -1 -5 -2 -0 -2 1 5 -2 -2 -0 1 -1
-1 1 4 7 -5 -14 -1 3 10 8 6 4 3 0 -0 -3 -2 1 2 2 2 0 1 2 -2 -2 1
6 -4 -2 7 1 -12 0 7 8 2 -0 -1 -1 -2 -3 -2 1 3 2 1 1 1 -0 1 -1 -0 -1
3 6 -8 -1 7 -5 -2 5 8 3 1 2 -0 -0 1 2 -0 0 5 -3 2 -0 2 2 -3 -2 -2
5 2 -3 -2 6 1 0 3 4 2 -0 3 1 1 -1 2 1 1 1 2 1 1 2 0 -2 -0 -1
8 3 -0 -0 2 1 1 -0 1 -0 1 2 2 -3 -0 -0 1 4 4 1 1 2 1 -1 -0 -1 0
11 7 3 2 2 0 -1 -3 -1 -0 1 -2 -2 -1 -0 2 3 3 4 0 1 -1 0 0 -0 -0 1
2 6 6 3 2 0 -0 -0 -1 -1 0 1 2 1 2 2 0 0 -1 1 2 -0 1 1 1 1 1
1 4 6 3 2 -1 0 1 0 0 1 1 1 1 1 0 1 -0 -0 0 -1 0 1 0 0 1 0
-1 4 5 3 -0 1 1 0 0 0 1 2 2 0 0 2 4 3 3 1 2 1 1 0 1 -0 -1
Height
3052 3048 3042 3036 3033 3031 3027 3022 3019 3018 3018 3016 3015 3014 3015 3015 3014 3013 3014 3012 3015 3017 3018 3018 3019 3019 3019
3040 3036 3030 3026 3021 3016 3012 3008 3005 3004 3003 3004 3002 3001 3002 3003 3004 3003 3005 3004 3006 3009 3012 3013 3013 3014 3014
3029 3025 3019 3011 3004 2999 2997 2993 2992 2991 2992 2989 2990 2989 2991 2993 2993 2993 2996 2997 3000 3002 3004 3007 3007 3009 3009
3020 3015 3007 3000 2989 2982 2979 2978 2979 2979 2978 2978 2978 2979 2981 2982 2983 2986 2988 2989 2992 2995 2997 3000 3001 3003 3004
3009 3001 2995 2986 2976 2971 2968 2966 2969 2971 2968 2970 2970 2971 2974 2974 2977 2980 2982 2983 2985 2989 2991 2995 2996 2998 2998
3001 2993 2986 2978 2970 2966 2963 2960 2958 2961 2960 2960 2961 2963 2967 2970 2972 2974 2976 2978 2983 2985 2988 2990 2991 2993 2993
2994 2988 2980 2973 2968 2965 2960 2956 2954 2954 2954 2955 2957 2961 2964 2966 2969 2971 2974 2975 2977 2981 2984 2987 2988 2989 2989
2986 2979 2972 2967 2962 2959 2958 2952 2949 2949 2951 2952 2954 2958 2960 2962 2965 2968 2970 2972 2975 2978 2981 2983 2984 2984 2984
2978 2973 2967 2960 2955 2953 2953 2949 2947 2948 2949 2951 2953 2954 2956 2959 2962 2965 2967 2969 2972 2975 2977 2979 2980 2981 2981
2971 2966 2961 2956 2951 2951 2951 2949 2948 2948 2948 2949 2951 2953 2955 2957 2960 2963 2965 2968 2970 2973 2974 2976 2978 2978 2978
2961 2958 2954 2952 2948 2948 2948 2947 2946 2946 2946 2947 2948 2950 2952 2955 2958 2961 2963 2966 2967 2970 2972 2974 2975 2975 2974
2950 2949 2948 2947 2944 2943 2943 2943 2943 2944 2944 2944 2945 2947 2949 2951 2954 2958 2960 2962 2965 2968 2970 2972 2972 2972 2971
2942 2942 2942 2941 2940 2940 2940 2940 2940 2940 2940 2941 2943 2944 2946 2948 2951 2954 2957 2959 2962 2965 2967 2968 2969 2969 2969
2936 2936 2935 2936 2936 2936 2936 2937 2937 2937 2938 2938 2939 2941 2943 2945 2948 2951 2953 2956 2958 2961 2964 2965 2965 2966 2966
2931 2931 2930 2931 2931 2933 2933 2933 2933 2933 2933 2934 2935 2937 2939 2942 2945 2947 2950 2952 2955 2958 2960 2962 2962 2963 2964
2927 2927 2926 2928 2928 2929 2929 2928 2928 2929 2929 2930 2932 2934 2936 2938 2941 2944 2947 2949 2952 2955 2957 2959 2960 2961 2961
2923 2923 2923 2924 2925 2926 2925 2925 2925 2925 2926 2927 2928 2931 2933 2935 2938 2941 2944 2947 2950 2952 2954 2956 2957 2958 2959